Regional Weather Roundup
Issued by NWS

Home | Current Version | Previous Version | Graphics & Text | Print | Product List | Glossary On
Versions: 1 2 3 4 5 6 7 8 9 10 11 12 13 14 15 16 17 18 19 20 21 22 23 24 25 26 27 28 29 30 31 32 33 34 35 36 37 38 39 40 41 42 43 44 45 46 47 48 49 50
000
ASUS43 KLOT 020000
RWRIL

ILLINOIS REGIONAL WEATHER ROUNDUP
NATIONAL WEATHER SERVICE CHICAGO/ROMEOVILLE IL
700 PM CDT MON SEP 01 2014

NOTE: "FAIR" INDICATES FEW OR NO CLOUDS BELOW 12,000 FEET WITH NO
SIGNIFICANT WEATHER AND/OR OBSTRUCTIONS TO VISIBILITY.

* THESE STATIONS ARE NOT UNDER NWS QUALITY CONTROL. THEY ALSO MAY NOT
  REPORT WEATHER SUCH AS PRECIPITATION OR FOG.

ILZ001-002-007-009-015-016-024-020100-
NORTHWEST ILLINOIS

CITY           SKY/WX    TMP DP  RH WIND       PRES   REMARKS
MOLINE         MOCLDY    78  66  66 W9        29.80S HX  80
6HR MIN TEMP:  77; 6HR MAX TEMP:  82;

STERLING*      CLEAR     79  66  65 W10       29.80R HX  81
$$

ILZ003-004-008-010-011-017-018-020100-
NORTH CENTRAL ILLINOIS

CITY           SKY/WX    TMP DP  RH WIND       PRES   REMARKS
ROCKFORD       LGT RAIN  74  63  68 NW15G22   29.81R
6HR MIN TEMP:  74; 6HR MAX TEMP:  83; 6HR PCP: TRACE;

$$

ILZ005-006-012>014-019>023-020100-
NORTHEAST ILLINOIS

CITY           SKY/WX    TMP DP  RH WIND       PRES   REMARKS
CHICAGO-OHARE  PTCLDY    79  62  56 SW14      29.78R HX  80
6HR MIN TEMP:  79; 6HR MAX TEMP:  83;

CHICAGO-MIDWAY PTCLDY    81  66  60 SW10G23   29.79R HX  83
6HR MIN TEMP:  81; 6HR MAX TEMP:  85;

AURORA         CLEAR     78  65  63 SW13G21   29.80R HX  80
6HR MIN TEMP:  78; 6HR MAX TEMP:  83;

WAUKEGAN       CLEAR     77  64  64 SW18G24   29.76R
6HR MIN TEMP:  77; 6HR MAX TEMP:  82;

DUPAGE AIRPORT PTCLDY    79  65  62 SW14      29.80R HX  81
6HR MIN TEMP:  79; 6HR MAX TEMP:  83;

WHEELING       CLEAR     80  64  58 SW8       29.79R HX  82
6HR MIN TEMP:  80; 6HR MAX TEMP:  84;

NORTHERLY ISL    N/A     80  63  55 SW10        N/A  HX  81
$$

LMZ740>746-020100-
SOUTHERN LAKE MICHIGAN

STATION/POSITION SKY/WX   TEMP    WIND        PRES    VSBY  WAVE
                          AIR SEA DIR/SP/G                  HT/PER
                          (F)     (DEG/KT/KT) (MB)    (MI)  (FT/S)
SOUTHERN BUOY              73 70  220/ 10/ 10 1007.1R         2/ 3
WAUKEGAN HARBOR            78     230/ 18/ 23   N/A
HARRISON CRIB              80     230/ 19/ 25   N/A
BURNHAM HARBOR             80     180/  9/ 15   N/A
CALUMET HARBOR             80     210/  7/ 12 1007.6R
MICHIGAN CITY              77     220/ 16/ 18   N/A
MICHIGAN CITY 6N           76 72  240/ 12/ 16   N/A           3/ 3
ST. JOSEPH                 75 72  220/ 12/ 16   N/A           2/ 3
$$

ILZ025>027-034>036-040-047-049-050-058-095>099-020100-
WEST-CENTRAL ILLINOIS

CITY           SKY/WX    TMP DP  RH WIND       PRES   REMARKS
QUINCY         MOCLDY    77  69  76 S3        29.86F
MACOMB*        PTCLDY    74  67  78 SW6       29.86F
$$

ILZ028>032-037-038-041>044-048-051>054-059>061-020100-
CENTRAL ILLINOIS

CITY           SKY/WX    TMP DP  RH WIND       PRES   REMARKS
DECATUR        CLEAR     79  66  64 SW12      29.87F HX  81
PEORIA         PTCLDY    79  66  64 SW8       29.84S HX  81
6HR MIN TEMP:  79; 6HR MAX TEMP:  83;

SPRINGFIELD    CLEAR     80  67  64 SW7       29.87S HX  82
6HR MIN TEMP:  80; 6HR MAX TEMP:  84;

TAYLORVILLE    NOT AVBL
$$

ILZ033-039-045-046-055>057-062-063-020100-
EAST-CENTRAL ILLINOIS

CITY           SKY/WX    TMP DP  RH WIND       PRES   REMARKS
CHAMPAIGN      CLEAR     77  66  68 SW9       29.87F
MATTOON        CLEAR     78  66  66 SW6       29.89S HX  80
$$

ILZ079-100>102-020100-
SOUTHWEST ILLINOIS

CITY           SKY/WX    TMP DP  RH WIND       PRES   REMARKS
BELLEVILLE     CLOUDY    79  71  75 E2        29.89F HX  82
CAHOKIA*       CLOUDY    82  68  62 S5        29.89F HX  85
$$

ILZ064>066-069>071-074>076-080>082-084>086-088>090-092>094-020100-
SOUTH-CENTRAL ILLINOIS

CITY           SKY/WX    TMP DP  RH WIND       PRES   REMARKS
CARBONDALE     CLOUDY    79  72  79 E3        29.92F HX  82
6HR MIN TEMP:  79; 6HR MAX TEMP:  83;

MT. VERNON     PTCLDY    79  66  65 S8        29.93F HX  81
$$

ILZ067-068-072-073-078-083-087-091-020100-
SOUTHEAST ILLINOIS

CITY           SKY/WX    TMP DP  RH WIND       PRES   REMARKS
LAWRENCEVILLE  PTCLDY    80  72  76 SW7       29.91S HX  84
$$

ABBREVIATIONS USED IN REMARKS
   TC - TEMPERATURE IN CELSIUS
  WCI - WIND CHILL INDEX
   HX - HEAT INDEX
  VSB - VISIBILITY
$$




USA.gov is the U.S. government's official web portal to all federal, state and local government web resources and services.